Location: Newark
(33.6333°S, 78.8500°W)
Time: 15:19:54
(UTC+00:00)

Tiros 1 despin weight - Pass Details

Date: 25 September 2019
Orbit: 594 x 643 km, 48.2° (Epoch: 16 October)

Event Time Altitude Azimuth Distance (km) Brightness Sun altitude
Rises 09:46:07 0° 230° (SW) 2,945 - -16.3°
Reaches altitude 10° 09:48:27 10° 228° (SW) 2,039 - -15.8°
Exits shadow 09:48:37 11° 228° (SW) 1,976 ? -15.8°
Maximum altitude 09:53:09 71° 144° (SE) 684 ? -14.9°
Drops below altitude 10° 09:57:51 10° 59° (ENE) 2,036 ? -13.9°
Sets 10:00:11 0° 56° (ENE) 2,941 ? -13.4°
